| time (UTC) | temp F | wind direction | speed knots | gust knots | rain 1hr in | rain 24hr in | rain mn in | humidity % | barometer mb |
| 20260505111549 | 74 | 163 | 1.7 | 4.3 | 0.00 | 0.00 | 0.00 | 88 | 1010.0 |
| 20260505101538 | 73 | 151 | 1.7 | 6.1 | 0.00 | 0.00 | 0.00 | 88 | 1009.8 |
| 20260505100026 | 73 | 167 | 1.7 | 5.2 | 0.00 | 0.00 | 0.00 | 88 | 1009.7 |
| 20260505094528 | 73 | 135 | 0.9 | 6.1 | 0.00 | 0.00 | 0.00 | 88 | 1009.9 |
| 20260505093019 | 73 | 169 | 0.9 | 5.2 | 0.00 | 0.00 | 0.00 | 88 | 1010.2 |
| 20260505091518 | 73 | 209 | 2.6 | 6.1 | 0.00 | 0.00 | 0.00 | 88 | 1010.1 |
| 20260505090014 | 73 | 157 | 0.9 | 6.1 | 0.00 | 0.00 | 0.00 | 88 | 1010.2 |
| 20260505084512 | 73 | 173 | 0.9 | 5.2 | 0.00 | 0.00 | 0.00 | 88 | 1010.2 |
| 20260505083005 | 73 | 156 | 1.7 | 6.1 | 0.00 | 0.00 | 0.00 | 87 | 1010.1 |
| 20260505081601 | 73 | 181 | 1.7 | 7.8 | 0.00 | 0.00 | 0.00 | 87 | 1010.3 |
| 20260505080105 | 73 | 179 | 1.7 | 7.0 | 0.00 | 0.00 | 0.00 | 87 | 1010.6 |
| 20260505074556 | 73 | 189 | 0.9 | 5.2 | 0.00 | 0.00 | 0.00 | 87 | 1010.7 |
| 20260505073058 | 73 | 207 | 2.6 | 7.8 | 0.00 | 0.00 | 0.00 | 87 | 1010.6 |
| 20260505071550 | 73 | 167 | 2.6 | 7.8 | 0.00 | 0.00 | 0.00 | 87 | 1010.6 |
| 20260505070052 | 73 | 160 | 1.7 | 5.2 | 0.00 | 0.00 | 0.00 | 87 | 1011.0 |
| 20260505064542 | 72 | 167 | 2.6 | 5.2 | 0.00 | 0.00 | 0.00 | 87 | 1011.4 |
| 20260505063048 | 72 | 144 | 0.9 | 5.2 | 0.00 | 0.00 | 0.00 | 87 | 1011.6 |
| 20260505061543 | 72 | 187 | 1.7 | 5.2 | 0.00 | 0.00 | 0.00 | 87 | 1011.7 |
| 20260505060038 | 72 | 157 | 1.7 | 7.0 | 0.00 | 0.00 | 0.00 | 87 | 1011.7 |
| 20260505054540 | 72 | 176 | 0.9 | 5.2 | 0.00 | 0.00 | 0.00 | 87 | 1011.9 |
| 20260505053037 | 72 | 155 | 0.9 | 5.2 | 0.00 | 0.00 | 0.00 | 87 | 1011.8 |
| 20260505051536 | 72 | 175 | 0.9 | 5.2 | 0.00 | 0.00 | 0.00 | 86 | 1011.9 |
| 20260505041548 | 72 | 167 | 1.7 | 5.2 | 0.00 | 0.00 | 0.00 | 86 | 1012.3 |
| 20260505040039 | 72 | 155 | 0.9 | 4.3 | 0.00 | 0.00 | 0.00 | 86 | 1012.5 |
| 20260505034532 | 72 | 152 | 1.7 | 4.3 | 0.00 | 0.00 | 0.00 | 85 | 1012.5 |
| 20260505033031 | 72 | 150 | 1.7 | 5.2 | 0.00 | 0.00 | 0.00 | 85 | 1012.5 |
| 20260505031539 | 72 | 144 | 1.7 | 4.3 | 0.00 | 0.00 | 0.00 | 84 | 1012.5 |
| 20260505030029 | 72 | 168 | 1.7 | 5.2 | 0.00 | 0.00 | 0.00 | 84 | 1012.5 |
| 20260505024530 | 72 | 190 | 2.6 | 6.1 | 0.00 | 0.00 | 0.00 | 83 | 1012.5 |
| 20260505023028 | 73 | 159 | 2.6 | 5.2 | 0.00 | 0.00 | 0.00 | 82 | 1012.6 |
| 20260505021527 | 73 | 150 | 1.7 | 6.1 | 0.00 | 0.00 | 0.00 | 82 | 1012.4 |
| 20260505020027 | 73 | 138 | 1.7 | 6.1 | 0.00 | 0.00 | 0.00 | 82 | 1012.4 |
| 20260505014533 | 73 | 140 | 2.6 | 7.8 | 0.00 | 0.00 | 0.00 | 81 | 1012.3 |
| 20260505013025 | 73 | 143 | 2.6 | 7.0 | 0.00 | 0.00 | 0.00 | 80 | 1012.3 |
| 20260505011524 | 74 | 167 | 3.5 | 5.2 | 0.00 | 0.00 | 0.00 | 80 | 1012.2 |
| 20260505010026 | 74 | 138 | 3.5 | 7.8 | 0.00 | 0.00 | 0.00 | 79 | 1012.1 |
| 20260505004527 | 74 | 159 | 4.3 | 12.2 | 0.00 | 0.00 | 0.00 | 79 | 1011.9 |
| 20260505003022 | 75 | 161 | 3.5 | 12.2 | 0.00 | 0.00 | 0.00 | 77 | 1012.0 |
| 20260505001520 | 75 | 157 | 4.3 | 11.3 | 0.00 | 0.00 | 0.00 | 76 | 1012.0 |
| 20260505000020 | 76 | 95 | 5.2 | 11.3 | 0.00 | 0.00 | 0.00 | 75 | 1012.2 |
| 20260504234519 | 76 | 180 | 5.2 | 9.6 | 0.00 | 0.00 | 0.00 | 76 | 1012.2 |
| 20260504233017 | 76 | 181 | 3.5 | 8.7 | 0.00 | 0.00 | 0.00 | 74 | 1012.3 |
| 20260504231514 | 76 | 138 | 5.2 | 13.0 | 0.00 | 0.00 | 0.00 | 75 | 1012.6 |
| 20260504230014 | 76 | 169 | 4.3 | 10.4 | 0.00 | 0.00 | 0.00 | 75 | 1012.7 |
| 20260504224518 | 76 | 142 | 6.1 | 9.6 | 0.00 | 0.00 | 0.00 | 74 | 1012.7 |
| 20260504223022 | 76 | 144 | 2.6 | 7.8 | 0.00 | 0.00 | 0.00 | 74 | 1013.1 |
| 20260504221509 | 76 | 139 | 4.3 | 8.7 | 0.00 | 0.00 | 0.00 | 75 | 1013.3 |
| 20260504220015 | 76 | 150 | 4.3 | 9.6 | 0.00 | 0.00 | 0.00 | 74 | 1013.3 |
| 20260504214507 | 77 | 137 | 4.3 | 10.4 | 0.00 | 0.00 | 0.00 | 73 | 1013.5 |
| 20260504213019 | 77 | 146 | 4.3 | 10.4 | 0.00 | 0.00 | 0.00 | 71 | 1013.5 |
| 20260504211506 | 77 | 135 | 2.6 | 11.3 | 0.00 | 0.00 | 0.00 | 72 | 1013.6 |
| 20260504210003 | 77 | 130 | 4.3 | 10.4 | 0.00 | 0.00 | 0.00 | 71 | 1013.9 |
| 20260504204503 | 78 | 136 | 4.3 | 9.6 | 0.00 | 0.00 | 0.00 | 69 | 1014.2 |
| 20260504203111 | 78 | 190 | 2.6 | 9.6 | 0.00 | 0.00 | 0.00 | 70 | 1014.2 |
| 20260504201601 | 79 | 163 | 4.3 | 8.7 | 0.00 | 0.00 | 0.00 | 69 | 1014.4 |
| 20260504200118 | 79 | 155 | 3.5 | 9.6 | 0.00 | 0.00 | 0.00 | 68 | 1014.6 |
| 20260504194601 | 79 | 152 | 3.5 | 9.6 | 0.00 | 0.00 | 0.00 | 67 | 1014.7 |
| 20260504193055 | 78 | 134 | 4.3 | 8.7 | 0.00 | 0.00 | 0.00 | 68 | 1015.0 |
| 20260504191557 | 78 | 169 | 3.5 | 11.3 | 0.00 | 0.00 | 0.00 | 67 | 1015.2 |
| 20260504190051 | 78 | 148 | 3.5 | 10.4 | 0.00 | 0.00 | 0.00 | 66 | 1015.3 |
| 20260504184550 | 78 | 163 | 5.2 | 11.3 | 0.00 | 0.00 | 0.00 | 66 | 1015.2 |
| 20260504183049 | 78 | 175 | 2.6 | 8.7 | 0.00 | 0.00 | 0.00 | 66 | 1015.3 |
| 20260504181547 | 78 | 182 | 4.3 | 11.3 | 0.00 | 0.00 | 0.00 | 66 | 1015.7 |
| 20260504180043 | 78 | 159 | 5.2 | 12.2 | 0.00 | 0.00 | 0.00 | 67 | 1015.8 |
| 20260504174543 | 77 | 136 | 4.3 | 9.6 | 0.00 | 0.00 | 0.00 | 67 | 1015.8 |
| 20260504173040 | 77 | 212 | 4.3 | 8.7 | 0.00 | 0.00 | 0.00 | 67 | 1016.1 |
| 20260504171545 | 77 | 153 | 5.2 | 8.7 | 0.00 | 0.00 | 0.00 | 67 | 1016.2 |